Lid_Strength_Index
7 7 7 7 8 7 8 7 8 8 9 8 7 6 5 5 5 4 4 4 4 3 3 2 2 2 1 1 0 0 1 1 0 -0 -0 -0 -0 -0 -0 -0 -0 -0 -0 -0
8 7 7 8 8 8 7 8 8 7 8 6 5 5 5 5 5 5 4 4 3 3 3 3 2 2 1 1 1 0 0 1 0 0 0 0 -0 -0 -0 0 -0 -0 -0 -0
9 7 7 9 8 8 7 7 7 8 7 6 6 5 5 5 4 4 4 4 3 3 3 2 2 1 1 1 1 1 1 1 1 1 1 0 0 0 1 0 0 0 1 -0
8 8 12 8 6 6 7 7 6 6 6 5 5 4 4 3 4 4 4 3 3 2 2 1 1 1 1 1 1 1 1 1 1 1 1 1 0 1 0 0 0 0 0 0
9 9 8 7 7 7 8 8 6 6 6 5 5 4 5 3 3 3 3 2 2 2 2 1 1 1 1 1 1 1 1 1 0 0 0 0 1 1 1 0 0 0 -0 -0
8 10 12 8 6 5 6 10 5 5 6 6 5 7 6 3 3 3 2 2 2 1 1 1 1 0 1 1 1 1 1 1 -0 -0 -0 0 0 0 -0 0 0 0 0 -0
9 9 8 6 5 5 10 9 5 5 5 5 6 5 4 3 2 2 2 2 1 1 1 1 0 0 1 1 2 1 0 -0 0 -0 -0 -0 -0 -0 0 0 0 0 0 -0
8 10 11 5 5 8 6 5 4 4 4 4 4 4 3 3 3 2 2 2 2 1 1 1 0 0 1 2 0 -0 -0 0 0 -0 -0 -0 0 0 0 0 1 1 1 1
7 8 6 4 5 4 4 5 4 4 4 4 4 4 3 3 3 2 2 2 1 1 1 1 0 0 1 1 -0 -0 0 1 0 -0 -0 -1 0 0 1 0 1 1 1 2
8 6 6 5 4 4 3 4 3 3 3 3 4 3 3 3 2 2 2 2 1 1 2 2 0 0 0 0 -0 0 1 1 0 0 1 0 0 0 1 1 1 1 2 2
7 6 5 5 4 3 3 3 3 3 3 3 3 3 3 2 2 2 2 2 1 2 1 2 1 0 0 -0 -0 0 0 -0 -0 -0 0 0 0 1 1 0 2 1 1 1
7 5 5 4 3 3 3 3 3 3 3 2 2 3 2 2 2 2 2 1 1 1 1 1 1 1 0 -0 -0 1 1 0 1 0 -0 0 1 1 8 8 9 10 11 6
5 3 4 3 3 3 3 3 2 2 2 3 2 2 2 2 2 3 1 1 2 1 1 1 1 1 -0 -0 0 1 1 0 0 1 0 1 1 1 1 4 8 10 11 11
3 3 4 3 3 2 2 2 2 2 2 2 2 2 2 2 2 2 2 1 1 1 1 1 1 1 -0 -0 0 1 1 6 1 -0 -0 0 1 1 1 1 2 1 8 8
3 3 3 2 2 2 2 2 3 3 2 2 2 2 2 2 2 2 1 1 1 1 1 1 1 1 -0 -1 0 1 1 0 0 -0 -0 1 1 1 1 1 1 1 1 4
3 3 3 3 3 3 2 3 3 3 2 2 2 2 2 1 1 1 1 1 2 2 1 1 1 0 -0 -0 -0 -0 0 2 2 0 0 1 0 1 1 0 1 0 1 1
4 4 4 4 3 3 3 2 2 2 2 2 2 1 1 2 2 2 1 1 1 1 1 1 1 -0 -1 -0 -0 -0 -0 0 3 1 -0 1 1 1 1 1 1 1 1 1
3 3 3 3 3 3 3 2 2 2 2 2 1 1 2 2 2 2 1 1 1 1 1 0 0 -0 -1 -1 -0 -1 -0 -0 -0 0 -0 0 0 -0 -0 0 0 1 1 1
3 3 3 3 2 2 2 2 2 2 1 1 2 2 2 2 2 1 1 1 2 2 1 0 2 1 -1 0 1 -0 -0 0 -0 -0 0 2 1 -0 -0 0 0 1 0 0
3 3 3 3 2 2 2 2 1 1 1 1 1 2 2 2 1 1 1 2 1 1 -0 0 0 0 -0 -0 -0 -0 -0 0 -0 0 -0 0 -0 -0 -0 4 1 0 0 0
3 3 3 3 3 2 2 1 2 2 1 1 2 2 2 2 1 1 2 3 1 0 0 1 0 0 -0 -1 0 -0 -0 -0 -0 -0 0 0 0 0 -0 -0 -0 -0 -0 -0
3 3 3 3 3 2 2 2 1 1 1 1 1 1 2 2 2 1 1 1 0 4 1 0 0 0 -0 0 -0 -1 -1 -0 0 -0 -0 -0 0 0 0 0 0 0 -0 -1
3 3 2 3 3 2 2 2 1 1 2 1 2 2 2 2 2 2 3 1 0 2 0 0 3 3 2 -0 -0 -1 -0 -0 -0 -0 -0 -0 0 0 -0 -0 -0 -0 -1 -0
4 4 3 2 2 2 3 2 2 1 1 1 1 1 1 2 1 1 0 3 3 2 1 1 2 4 4 -0 -0 -0 -0 -0 -0 -0 -0 5 0 -0 0 0 0 -0 -0 1
4 4 4 3 3 2 2 2 2 2 1 2 1 1 1 0 1 1 0 0 5 2 0 5 5 5 0 -0 -0 0 -0 -0 -0 -0 -0 0 0 0 -0 -0 -0 -0 -0 -0
4 5 4 4 3 3 2 2 2 2 2 2 1 1 1 1 0 1 0 2 0 2 0 0 0 0 -0 -0 -0 -0 -0 -0 -0 0 0 -0 -0 -0 -0 -0 -0 -0 -0 -0
4 8 4 4 4 3 2 2 2 2 2 2 2 1 1 1 1 1 2 0 0 0 0 -0 0 1 -0 -0 -0 -0 -0 -0 2 0 1 0 -0 -0 -0 -0 -1 -0 -1 -1